• In Hungary
  • List of Countries
  • For 7 days
  • Water Temperature
  • Satellite Maps
  • Weather Map
  • News
  • Weather Widgets
  • user-avatar
    Login

    Hourly Weather Niskowa

    Today, 23 October, Tuesday

    Time Temperature Precipitation Wind Pressure Humidity
    00:00 +8°C° 0.1 mm 2 mps 740 mmHg 80%
    01:00 +8°C° 0.1 mm 2 mps 740 mmHg 80%
    02:00 +8°C° 0.1 mm 2 mps 740 mmHg 83%
    03:00 +7°C° 0.1 mm 2 mps 740 mmHg 85%
    04:00 +7°C° 0.1 mm 3 mps 740 mmHg 87%
    05:00 +7°C° 0 mm 2 mps 739 mmHg 88%
    06:00 +6°C° 0 mm 2 mps 739 mmHg 88%
    07:00 +6°C° 0 mm 2 mps 739 mmHg 88%
    08:00 +7°C° 0 mm 3 mps 738 mmHg 79%
    09:00 +8°C° 0 mm 3 mps 738 mmHg 70%
    10:00 +10°C° 0 mm 4 mps 737 mmHg 62%
    11:00 +10°C° 0.1 mm 4 mps 736 mmHg 59%
    12:00 +11°C° 0.1 mm 4 mps 735 mmHg 56%
    13:00 +10°C° 0.1 mm 5 mps 734 mmHg 54%
    14:00 +9°C° 0.3 mm 5 mps 733 mmHg 58%
    15:00 +9°C° 0.3 mm 6 mps 732 mmHg 63%
    16:00 +8°C° 0.3 mm 6 mps 732 mmHg 67%
    17:00 +8°C° 0.1 mm 6 mps 731 mmHg 70%
    18:00 +7°C° 0.1 mm 6 mps 730 mmHg 73%
    19:00 +6°C° 0.1 mm 7 mps 730 mmHg 76%
    20:00 +6°C° 0.3 mm 7 mps 729 mmHg 78%
    21:00 +8°C° 0.3 mm 7 mps 728 mmHg 79%
    22:00 +8°C° 0.3 mm 7 mps 727 mmHg 80%
    23:00 +8°C° 0.9 mm 7 mps 726 mmHg 82%

    Tomorrow, 24 October, Wednesday

    Time Temperature Precipitation Wind Pressure Humidity
    00:00 +8°C° 0.9 mm 7 mps 726 mmHg 83%
    01:00 +9°C° 0.9 mm 7 mps 725 mmHg 84%
    02:00 +9°C° 1.2 mm 7 mps 724 mmHg 84%
    03:00 +9°C° 1.2 mm 8 mps 723 mmHg 85%
    04:00 +10°C° 1.2 mm 8 mps 722 mmHg 85%
    05:00 +7°C° 1.8 mm 8 mps 722 mmHg 82%
    06:00 +6°C° 1.8 mm 8 mps 722 mmHg 79%
    07:00 +5°C° 1.8 mm 8 mps 723 mmHg 76%
    08:00 +4°C° 0.4 mm 8 mps 723 mmHg 71%
    09:00 +3°C° 0.4 mm 9 mps 724 mmHg 67%
    10:00 +3°C° 0.4 mm 9 mps 725 mmHg 62%
    11:00 +3°C° 0.2 mm 9 mps 726 mmHg 59%
    12:00 +3°C° 0.2 mm 9 mps 726 mmHg 57%
    13:00 +5°C° 0.2 mm 9 mps 726 mmHg 54%
    14:00 +4°C° 0 mm 8 mps 727 mmHg 54%
    15:00 +4°C° 0 mm 8 mps 727 mmHg 54%
    16:00 +4°C° 0 mm 7 mps 728 mmHg 54%
    17:00 +3°C° 0 mm 7 mps 728 mmHg 55%
    18:00 +3°C° 0 mm 7 mps 729 mmHg 56%
    19:00 +3°C° 0 mm 7 mps 730 mmHg 58%
    20:00 +2°C° 0 mm 7 mps 730 mmHg 59%
    21:00 +2°C° 0 mm 6 mps 731 mmHg 61%
    22:00 +2°C° 0 mm 6 mps 731 mmHg 62%
    23:00 +1°C° 0 mm 6 mps 732 mmHg 66%

    Day after tomorrow, 25 October, Thursday

    Time Temperature Precipitation Wind Pressure Humidity
    00:00 +1°C° 0 mm 6 mps 732 mmHg 69%
    01:00 +1°C° 0 mm 5 mps 732 mmHg 72%
    02:00 +1°C° 0 mm 5 mps 732 mmHg 74%
    03:00 +1°C° 0 mm 5 mps 732 mmHg 76%
    04:00 0°C° 0 mm 5 mps 733 mmHg 78%
    05:00 0°C° 0 mm 4 mps 732 mmHg 78%
    06:00 +1°C° 0 mm 4 mps 732 mmHg 77%
    07:00 +1°C° 0 mm 4 mps 732 mmHg 77%
    08:00 +1°C° 0.3 mm 4 mps 732 mmHg 76%
    09:00 +3°C° 0.3 mm 4 mps 731 mmHg 76%
    10:00 +4°C° 0.3 mm 4 mps 731 mmHg 76%
    11:00 +6°C° 0.6 mm 5 mps 730 mmHg 78%
    12:00 +7°C° 0.6 mm 5 mps 729 mmHg 80%
    13:00 +8°C° 0.6 mm 6 mps 729 mmHg 83%
    14:00 +8°C° 0.4 mm 6 mps 728 mmHg 83%
    15:00 +8°C° 0.4 mm 6 mps 728 mmHg 83%
    16:00 +8°C° 0.4 mm 7 mps 728 mmHg 83%
    17:00 +8°C° 0.3 mm 6 mps 728 mmHg 84%
    18:00 +8°C° 0.3 mm 6 mps 729 mmHg 85%
    19:00 +7°C° 0.3 mm 5 mps 729 mmHg 86%
    20:00 +7°C° 0.1 mm 5 mps 730 mmHg 86%
    21:00 +6°C° 0.1 mm 5 mps 730 mmHg 86%
    22:00 +5°C° 0.1 mm 5 mps 731 mmHg 86%
    23:00 +5°C° 0 mm 4 mps 731 mmHg 87%

    26 October, Friday

    Time Temperature Precipitation Wind Pressure Humidity
    00:00 +5°C° 0 mm 4 mps 731 mmHg 88%
    01:00 +4°C° 0 mm 4 mps 731 mmHg 88%
    02:00 +4°C° 0 mm 3 mps 732 mmHg 89%
    03:00 +3°C° 0 mm 3 mps 732 mmHg 90%
    04:00 +4°C° 0 mm 2 mps 732 mmHg 91%
    05:00 +4°C° 0 mm 2 mps 732 mmHg 90%
    06:00 +4°C° 0 mm 2 mps 732 mmHg 90%
    07:00 +4°C° 0 mm 2 mps 732 mmHg 89%
    08:00 +5°C° 0 mm 3 mps 732 mmHg 83%
    09:00 +8°C° 0 mm 3 mps 733 mmHg 77%
    10:00 +10°C° 0 mm 3 mps 733 mmHg 71%
    11:00 +10°C° 0 mm 3 mps 732 mmHg 70%
    12:00 +11°C° 0 mm 3 mps 732 mmHg 69%
    13:00 +12°C° 0 mm 3 mps 732 mmHg 68%
    14:00 +11°C° 0 mm 3 mps 731 mmHg 72%
    15:00 +10°C° 0 mm 2 mps 731 mmHg 76%
    16:00 +10°C° 0 mm 2 mps 731 mmHg 79%
    17:00 +9°C° 0 mm 2 mps 730 mmHg 82%
    18:00 +9°C° 0 mm 2 mps 730 mmHg 85%
    19:00 +8°C° 0 mm 2 mps 730 mmHg 87%
    20:00 +8°C° 0 mm 3 mps 730 mmHg 87%
    21:00 +8°C° 0 mm 3 mps 729 mmHg 87%
    22:00 +9°C° 0 mm 3 mps 729 mmHg 86%
    23:00 +9°C° 0 mm 3 mps 729 mmHg 87%

    27 October, Saturday

    Time Temperature Precipitation Wind Pressure Humidity
    00:00 +9°C° 0 mm 3 mps 728 mmHg 88%
    01:00 +9°C° 0 mm 3 mps 728 mmHg 88%
    02:00 +9°C° 0 mm 3 mps 728 mmHg 89%
    03:00 +9°C° 0 mm 3 mps 727 mmHg 90%
    04:00 +9°C° 0 mm 3 mps 727 mmHg 90%
    05:00 +9°C° 0 mm 3 mps 727 mmHg 91%
    06:00 +9°C° 0 mm 3 mps 726 mmHg 91%
    07:00 +9°C° 0 mm 2 mps 726 mmHg 92%
    08:00 +10°C° 0.1 mm 2 mps 726 mmHg 88%
    09:00 +13°C° 0.1 mm 2 mps 726 mmHg 84%
    10:00 +14°C° 0.1 mm 2 mps 726 mmHg 80%
    11:00 +13°C° 1.3 mm 2 mps 726 mmHg 84%
    12:00 +13°C° 1.3 mm 2 mps 725 mmHg 87%
    13:00 +12°C° 1.3 mm 2 mps 725 mmHg 91%
    14:00 +12°C° 2.4 mm 2 mps 725 mmHg 92%
    15:00 +10°C° 2.4 mm 2 mps 725 mmHg 93%
    16:00 +10°C° 2.4 mm 3 mps 725 mmHg 93%
    17:00 +9°C° 1.8 mm 2 mps 725 mmHg 94%
    18:00 +9°C° 1.8 mm 2 mps 725 mmHg 95%
    19:00 +9°C° 1.8 mm 1 mps 725 mmHg 95%
    20:00 +8°C° 1.6 mm 2 mps 725 mmHg 95%
    21:00 +7°C° 1.6 mm 2 mps 725 mmHg 95%
    22:00 +7°C° 1.6 mm 2 mps 725 mmHg 94%
    23:00 +7°C° 2.2 mm 2 mps 724 mmHg 94%

    28 October, Sunday

    Time Temperature Precipitation Wind Pressure Humidity
    00:00 +7°C° 2.2 mm 2 mps 724 mmHg 94%
    01:00 +7°C° 2.2 mm 2 mps 723 mmHg 93%
    02:00 +6°C° 2.2 mm 2 mps 723 mmHg 93%
    03:00 +5°C° 2.2 mm 3 mps 722 mmHg 93%
    04:00 +5°C° 2.2 mm 3 mps 722 mmHg 93%
    05:00 +6°C° 1.8 mm 2 mps 722 mmHg 93%
    06:00 +6°C° 1.8 mm 2 mps 722 mmHg 93%
    07:00 +5°C° 1.8 mm 2 mps 722 mmHg 93%
    08:00 +6°C° 0.1 mm 2 mps 723 mmHg 90%
    09:00 +7°C° 0.1 mm 2 mps 724 mmHg 87%
    10:00 +8°C° 0.1 mm 2 mps 724 mmHg 85%
    11:00 +8°C° 0 mm 2 mps 725 mmHg 83%
    12:00 +8°C° 0 mm 3 mps 726 mmHg 81%
    13:00 +9°C° 0 mm 3 mps 727 mmHg 79%
    14:00 +8°C° 0.1 mm 3 mps 728 mmHg 81%
    15:00 +7°C° 0.1 mm 3 mps 729 mmHg 83%
    16:00 +6°C° 0.1 mm 2 mps 730 mmHg 86%
    17:00 +5°C° 0 mm 2 mps 730 mmHg 87%
    18:00 +6°C° 0 mm 1 mps 731 mmHg 89%
    19:00 +5°C° 0 mm 1 mps 732 mmHg 91%
    20:00 +5°C° 0 mm 1 mps 732 mmHg 91%
    21:00 +4°C° 0 mm 1 mps 733 mmHg 92%
    22:00 +4°C° 0 mm 1 mps 733 mmHg 92%
    23:00 +4°C° 0 mm 1 mps 733 mmHg 92%

    29 October, Monday

    Time Temperature Precipitation Wind Pressure Humidity
    00:00 +3°C° 0 mm 0 mps 733 mmHg 92%
    01:00 +3°C° 0 mm 0 mps 733 mmHg 91%
    02:00 +3°C° 0 mm 0 mps 734 mmHg 91%
    03:00 +4°C° 0 mm 1 mps 734 mmHg 91%
    04:00 +4°C° 0 mm 1 mps 734 mmHg 90%
    05:00 +4°C° 0 mm 1 mps 734 mmHg 90%
    06:00 +4°C° 0 mm 1 mps 734 mmHg 90%
    07:00 +4°C° 0 mm 1 mps 734 mmHg 89%
    08:00 +5°C° 0 mm 1 mps 734 mmHg 86%
    09:00 +6°C° 0 mm 1 mps 734 mmHg 82%
    10:00 +7°C° 0 mm 1 mps 734 mmHg 79%
    11:00 +6°C° 0 mm 2 mps 733 mmHg 79%
    12:00 +7°C° 0 mm 2 mps 733 mmHg 78%
    13:00 +7°C° 0 mm 3 mps 732 mmHg 78%
    14:00 +7°C° 0 mm 3 mps 732 mmHg 81%
    15:00 +5°C° 0 mm 3 mps 731 mmHg 84%
    16:00 +6°C° 0 mm 2 mps 731 mmHg 87%
    17:00 +5°C° 0.1 mm 3 mps 731 mmHg 89%
    18:00 +5°C° 0.1 mm 3 mps 730 mmHg 90%
    19:00 +5°C° 0.1 mm 3 mps 730 mmHg 92%
    20:00 +6°C° 0.2 mm 2 mps 729 mmHg 92%
    21:00 +6°C° 0.2 mm 2 mps 729 mmHg 93%
    22:00 +6°C° 0.2 mm 2 mps 729 mmHg 94%
    23:00 +6°C° 0.1 mm 2 mps 728 mmHg 94%
    Show more